Location: Cheadle
(51.0146°N, 113.5417°W)
Time: 09:49:23
(UTC+00:00)

Oscar 19 - Pass Details

Date: 07 December 2023
Orbit: 771 x 789 km, 98.9° (Epoch: 29 February)

Event Time Altitude Azimuth Distance (km) Brightness Sun altitude
Rises 10:55:39 0° 29° (NNE) 3,276 14.3 -40.7°
Reaches altitude 10° 10:59:01 10° 52° (NE) 2,345 13.7 -40.2°
Maximum altitude 11:01:58 15° 87° (E) 2,002 13.3 -39.7°
Drops below altitude 10° 11:04:55 10° 123° (ESE) 2,342 13.5 -39.3°
Sets 11:08:15 0° 145° (SE) 3,267 14.1 -38.8°
